Regional Weather Roundup
Issued by NWS Charleston, WV

Home | Current Version | Previous Version | Graphics & Text | Print | Product List | Glossary On
Versions: 1 2 3 4 5 6 7 8 9 10 11 12 13 14 15 16 17 18 19 20 21 22 23 24 25 26 27 28 29 30 31 32 33 34 35 36 37 38 39 40 41 42 43 44 45 46 47 48 49 50
000
ASUS41 KRLX 030810
RWRRLX
West Virginia Regional Weather Roundup
National Weather Service Charleston WV
400 AM EDT MON AUG 03 2015

Note: "fair" indicates few or no clouds below 12,000 feet with no
significant weather and/or obstructions to visibility.

WVZ003-030900-
Northern Panhandle of West Virginia

CITY           SKY/WX    TMP DP  RH WIND       PRES   REMARKS
WHEELING       CLEAR     69  59  70 SW9       29.86R
$$

WVZ009-030900-
Northwest West Virginia

CITY           SKY/WX    TMP DP  RH WIND       PRES   REMARKS
PARKERSBURG    CLEAR     65  60  84 S8        29.88F
$$

WVZ006-030900-
Western West Virginia

CITY           SKY/WX    TMP DP  RH WIND       PRES   REMARKS
HUNTINGTON     CLEAR     63  61  93 CALM      29.89F
$$

WVZ015-030900-
West Central West Virginia

CITY           SKY/WX    TMP DP  RH WIND       PRES   REMARKS
CHARLESTON     PTCLDY    62  60  93 CALM      29.90F
$$

WVZ022-031-030900-
North Central West Virginia

CITY           SKY/WX    TMP DP  RH WIND       PRES   REMARKS
CLARKSBURG     CLEAR     64  59  83 CALM      29.89F
MORGANTOWN     CLEAR     70  56  61 S5        29.89F
$$

WVZ025-035-042-045-030900-
Southern West Virginia

CITY           SKY/WX    TMP DP  RH WIND       PRES   REMARKS
BECKLEY        CLOUDY    64  55  72 S3        29.99S
LOGAN            N/A     66  59  77 CALM      29.90F
BLUEFIELD      MOCLDY    70  53  54 VRB3      30.02F
LEWISBURG      CLOUDY    57  55  93 CALM      30.00S FOG
$$

WVZ047-030900-
Northern Mountains of West Virginia

CITY           SKY/WX    TMP DP  RH WIND       PRES   REMARKS
ELKINS         CLEAR     57  55  93 CALM      29.96F
$$

WVZ052-030900-
Eastern Panhandle of West Virginia

CITY           SKY/WX    TMP DP  RH WIND       PRES   REMARKS
MARTINSBURG    CLEAR     64  58  80 S6        29.87F
PETERSBURG     CLEAR    N/A N/A N/A CALM      29.91F
$$


USA.gov is the U.S. government's official web portal to all federal, state and local government web resources and services.